OBJECT B

Satellite information

Favourite Embed

Satellite Type and Status

UNKNOWNIN ORBIT

Key statistics

Satellite OBJECT B at a glance.

Uptime

1083

Days in orbit

Revolutions

≈ 13.3

Per day

Orbit

LEO

Low Earth Orbit

Inclination

86.0

Latest

Satellite identification and parameters

Extended collection of information and parameters for OBJECT B.

Object identification

Identified? True

Debris? False

Object name: OBJECT B

International designator: 2022-056B

Object number (NORAD): 52717

Object ID (CCSDS): 52717

Country: PEOPLES REPUBLIC OF CHINA (PRC)

Current information (Y/N): Y

RCS size: LARGE

Orbital parameters

Period: 108.305 minutes

Inclination: 86.004 deg

SMA: 7526.499 km

Apoapsis: 1183.059 km

Periapsis: 1113.669 km

RAAN: 256.9548 deg

Eccentricy: 0.0046097

Argument of periapsis: 70.0999 deg

Mean anomaly: 290.5095 deg

Mean motion: 13.29576297 rev/day

Mean motion (dot): 0.00000049 rev/day2

B* drag term: 0.000070817 1/REarth

Two-line elements (TLE)

Creation date: May 6, 2025, 3:54 a.m.

Reference frame: TEME

Reference center: EARTH

Epoch: May 5, 2025, 8:27 p.m. UTC

TLE line 0: 0 OBJECT B

TLE line 1: 1 52717U 22056B 25125.85254147 .00000049 00000-0 70817-4 0 9998

TLE line 2: 2 52717 86.0040 256.9548 0046097 70.0999 290.5095 13.29576297144180

Live tracking on map

Real-time ground track for satellite OBJECT B.

In-orbit conjunctions

There are no conjunctions computed for OBJECT B, at the moment. Check back to stay up to date, as we update our databases every day.

Go to all conjunctions

Associated space launch

"Ronghe Shiyan Weixing" (RSW) = "Integrated Experimental Satellite" are test satellites that will be used to develop a state-owned Chinese low-earth orbit constellation, Xingwang, consisting of several thousand satellites.

OBJECT B was lifted into orbit during the mission ‘Long March 2C/YZ-1S | RSW-04 - 06’, on board a Long March 2C/YZ-1S space rocket.

The launch took place on May 20, 2022, 10:30 a.m. from Launch Area 4 (SLS-2 / 603).

For more information about the launch, click the button.

Launch to space Long March 2C/YZ-1S | RSW-04 - 06
Long March 2C/YZ-1S | RSW-04 - 06

Agency: N/A

Status: Launch Successful

Launch date: May 20, 2022, 10:30 a.m. UTC

Rocket: Long March 2C/YZ-1S

Launch pad: Launch Area 4 (SLS-2 / 603)

Location: Jiuquan Satellite Launch Center, People's Republic of China

...

Latest news about this satellite

There are no fresh news available about this satellite. Check back as we update our databases every day.


Newsletter sign-up

Weekly statistics, charts and insights to help you stay on top of the space industry.